Simultaneous Nadir Overpasses (SNOs) Predictions

Prediction of SNOs between NOAA-19 and TERRA Satellite Orbit:

Table of predicted SNOs for the next 14.0 days since TLE Epoch: 5/4/2024
Index Date (NOAA-19) Time (NOAA-19) Lat,Lon (NOAA-19) SZA (NOAA-19 ) Date (TERRA) Time (TERRA) Lat,Lon (TERRA) SZA (TERRA ) Distance(km) Time Diff (sec)
1 05/04/2024 20:13:09 79.38,-107.66 63.50 05/04/2024 20:14:21 79.38,-107.58 63.52 1.66 72
2 05/04/2024 21:04:05 -79.59, 61.52 116.21 05/04/2024 21:03:37 -79.59, 61.43 116.22 1.78 28
3 05/07/2024 00:03:12 -79.46, 15.65 116.98 05/07/2024 00:03:38 -79.45, 15.52 117.00 3.10 26
4 05/07/2024 00:54:03 79.58,-176.03 63.18 05/07/2024 00:52:56 79.57,-176.01 63.16 0.50 67
5 05/09/2024 03:53:09 79.46, 138.21 62.45 05/09/2024 03:52:56 79.46, 138.21 62.44 0.64 13
6 05/11/2024 06:52:14 79.38, 92.72 61.77 05/11/2024 06:52:55 79.37, 92.60 61.77 2.70 41
7 05/11/2024 07:43:14 -79.50, -98.89 118.05 05/11/2024 07:42:13 -79.51, -98.82 118.06 1.69 61
8 05/13/2024 10:42:21 -79.36,-144.89 118.79 05/13/2024 10:42:13 -79.37,-144.74 118.77 3.26 8
9 05/15/2024 13:41:25 -79.30, 169.89 119.37 05/15/2024 13:42:11 -79.29, 169.76 119.38 2.93 46
10 05/15/2024 14:32:14 79.44, -21.64 60.82 05/15/2024 14:31:28 79.43, -21.68 60.80 0.92 46



Historial Predications of SNOs between NOAA-19 and TERRA
